Temp
21 21 21 21 21 21 20 21 22 22 22 22 22 21 21 21 21 21 21 21 21 21 21 21 21 21 21 21 21 21 20 20 20 20 20 20 20 20 20 20 20 20 20
21 21 21 21 21 20 21 20 21 22 22 22 21 21 21 22 21 21 21 21 21 21 21 21 21 20 20 20 20 20 20 21 21 21 21 20 20 20 20 20 20 20 20
21 21 21 21 21 20 20 21 21 21 22 22 21 21 21 21 21 21 21 21 21 21 21 21 21 21 20 20 20 20 20 21 20 20 21 20 20 20 20 20 20 20 20
22 21 21 21 21 20 21 21 21 21 21 21 21 21 21 21 21 21 21 22 21 21 21 21 21 21 20 20 20 20 20 20 20 20 21 21 20 20 20 20 20 20 20
21 21 21 21 20 20 20 20 21 21 21 21 21 21 21 21 21 21 21 22 21 21 21 21 21 20 20 20 20 20 20 20 21 21 21 20 20 20 20 20 19 20 20
21 21 21 21 20 20 20 20 20 21 21 21 21 21 21 21 21 21 21 21 21 21 21 21 21 21 22 21 21 20 20 20 21 21 20 20 20 20 20 19 19 20 20
20 21 21 21 20 21 20 20 20 20 20 20 21 21 21 22 22 21 21 21 21 21 21 21 21 21 21 21 21 21 20 21 21 21 21 20 20 21 20 20 20 20 19
21 21 21 21 21 20 20 20 21 20 20 21 21 21 21 22 21 21 21 21 21 21 21 22 22 22 22 21 21 21 21 22 22 21 21 20 20 20 20 20 20 20 20
21 21 21 21 21 20 20 20 20 20 20 20 20 21 21 21 21 21 21 21 21 21 22 21 22 22 22 22 21 21 21 21 22 21 21 21 21 20 20 20 20 20 20
20 21 21 21 21 21 20 20 20 21 20 20 20 21 20 21 21 21 21 21 21 21 22 22 22 22 22 22 22 22 22 22 22 21 21 20 20 20 20 20 20 20 20
20 20 20 21 21 21 21 20 20 20 21 20 20 20 21 21 21 21 21 21 21 21 22 22 22 23 23 23 22 22 22 22 22 21 21 20 20 20 21 21 20 20 20
20 20 20 20 21 21 21 21 21 20 20 20 20 21 21 21 21 21 21 21 22 23 23 23 23 23 23 23 22 21 22 22 22 21 21 21 21 20 20 21 21 21 21
20 20 20 20 20 21 21 21 21 21 20 20 21 21 21 21 22 22 22 22 23 23 24 24 24 24 24 23 23 23 23 22 22 22 21 21 21 20 20 21 21 21 21
20 20 20 20 20 21 21 21 21 21 21 21 21 21 22 22 23 23 23 23 23 23 24 24 24 24 24 24 24 24 24 23 23 23 22 22 21 21 21 21 21 22 22
20 21 21 21 21 21 22 21 21 21 21 21 22 22 22 23 23 23 23 23 24 24 24 24 24 25 25 25 25 25 24 24 24 23 23 23 22 22 22 22 22 22 22
21 21 21 21 22 22 22 22 22 22 22 22 22 22 23 23 24 23 24 23 23 24 24 24 25 25 25 25 25 25 24 24 24 24 24 23 23 23 23 23 23 23 23
21 22 22 21 22 22 22 22 22 22 22 23 23 23 23 23 24 24 24 24 24 24 24 25 25 25 25 25 25 25 24 24 24 24 24 24 24 24 24 24 24 24 24
22 22 22 22 22 22 22 23 23 23 23 23 23 23 23 23 24 24 24 24 24 24 25 25 25 26 26 25 25 25 25 25 25 25 25 25 25 25 25 24 24 25 25
23 22 22 22 23 23 22 23 23 23 23 23 24 24 23 24 24 24 24 24 24 25 25 25 25 25 26 26 26 26 26 26 26 26 26 25 25 26 26 26 26 26 26
23 23 22 22 22 23 23 22 23 23 23 23 24 24 24 24 24 24 24 24 25 25 25 25 25 25 26 26 26 26 26 26 26 27 27 26 26 26 26 27 26 26 26
23 22 22 22 22 23 22 22 22 23 23 23 23 23 23 23 24 24 24 24 25 25 25 25 25 26 26 26 26 27 27 27 27 27 28 27 27 27 27 27 27 27 27
23 23 22 23 23 23 23 23 23 23 23 23 23 23 23 24 24 24 24 24 24 25 25 25 25 26 25 26 25 24 22 27 28 28 28 28 28 28 28 28 28 28 27
23 23 23 23 23 23 23 23 23 23 23 23 23 23 23 23 23 24 24 24 24 25 25 25 25 25 25 25 25 25 23 24 23 28 28 28 28 28 28 28 28 28 28
24 23 23 23 24 23 23 23 24 24 23 24 24 23 23 23 23 24 24 24 24 24 25 25 25 25 25 24 24 24 24 24 23 24 28 28 28 28 28 28 28 28 27
24 24 24 23 24 24 24 24 24 24 24 24 24 23 23 23 23 23 24 24 24 24 25 25 25 25 25 25 25 25 24 24 24 23 24 25 27 27 28 28 28 28 27
23 23 23 23 24 24 24 24 24 24 24 24 24 23 23 23 23 24 24 24 24 24 24 24 25 25 25 25 25 25 24 24 24 24 22 22 23 26 26 27 27 27 27
Height
824 825 827 828 829 831 831 832 832 833 833 834 832 833 833 834 835 834 834 834 836 838 839 839 840 839 840 840 842 843 844 845 845 845 845 844 843 844 844 845 844 845 844
822 826 828 830 831 833 833 834 834 835 835 837 839 838 839 838 838 837 837 837 839 840 841 842 843 844 843 844 845 846 849 848 849 848 849 848 847 847 848 848 847 846 847
823 827 829 831 833 835 835 836 838 838 839 839 841 841 841 841 842 841 841 841 842 843 845 846 847 847 846 848 849 849 852 851 851 852 852 851 850 850 852 851 850 850 850
824 828 830 833 835 836 838 839 840 841 841 842 842 843 843 845 845 845 845 845 846 848 850 851 850 850 850 852 852 853 853 853 855 856 854 853 854 855 854 853 853 853 855
826 830 833 835 837 838 840 842 842 843 843 844 845 845 845 847 848 848 849 848 849 851 852 852 852 853 854 855 855 856 856 857 858 857 856 857 856 858 857 855 856 857 857
829 832 835 837 839 841 842 843 845 846 846 846 847 848 848 848 849 850 851 852 853 854 854 855 856 856 857 857 858 859 860 860 859 859 859 859 860 860 860 859 859 859 859
831 834 836 838 840 842 844 845 847 848 848 849 849 850 850 851 853 854 855 856 858 858 858 859 860 860 860 861 861 862 863 862 862 862 862 862 863 862 862 862 862 862 861
833 836 838 840 842 844 845 847 848 850 851 852 852 852 853 853 855 855 858 860 861 861 862 863 862 864 864 865 865 864 864 864 864 864 865 865 865 865 865 865 864 864 863
837 838 839 842 844 845 846 848 850 851 852 853 854 855 856 856 857 859 861 863 864 865 865 866 866 866 867 867 867 866 866 866 867 867 867 867 867 867 867 867 867 866 866
840 841 843 844 846 847 849 851 852 854 854 855 856 857 858 859 861 861 864 866 868 868 869 869 869 869 869 869 869 869 869 869 869 869 870 870 870 870 869 869 869 868 868
842 844 845 846 848 849 851 853 854 856 857 857 859 860 860 861 863 865 866 868 870 870 871 871 871 871 871 872 871 871 871 871 871 871 871 871 872 872 871 871 870 870 869
842 845 847 849 850 851 853 854 856 857 859 860 861 862 863 864 865 867 869 870 871 871 873 873 873 873 873 873 873 873 873 873 873 873 873 873 873 874 873 873 872 870 869
842 846 848 850 852 853 854 856 857 859 860 862 863 864 865 866 867 869 870 872 873 874 875 875 875 874 874 874 874 874 873 874 874 874 874 874 874 875 875 874 873 872 871
843 846 849 851 853 854 856 858 859 860 862 864 865 866 867 868 869 871 872 874 875 875 876 876 876 874 874 874 874 874 874 875 875 875 875 875 876 876 876 875 873 873 872
844 846 849 851 853 855 857 859 860 862 863 865 867 868 869 870 872 873 875 876 877 877 878 877 877 876 875 875 875 876 876 876 876 877 877 877 877 877 876 876 875 874 873
844 846 849 852 854 856 858 860 862 864 865 867 868 870 871 873 874 876 876 877 878 879 878 878 878 878 878 877 877 877 878 878 878 878 879 879 878 878 877 877 876 874 873
844 847 849 852 854 857 859 861 862 865 866 868 870 872 873 875 876 877 878 879 880 880 880 880 879 879 879 879 879 879 879 879 879 880 880 880 880 879 878 877 876 875 874
843 846 850 852 855 857 860 862 864 866 867 869 871 873 875 876 877 878 879 880 881 881 881 881 880 880 879 879 880 880 880 880 880 881 881 881 881 880 878 878 877 875 874
844 846 849 852 854 857 860 862 865 867 868 870 871 873 875 877 878 879 880 881 882 882 882 882 882 881 880 881 880 880 880 881 881 881 881 881 880 879 878 878 877 876 874
844 846 848 852 855 856 860 862 865 867 869 870 871 873 876 877 879 880 881 882 883 883 883 883 883 882 881 881 881 880 880 880 880 880 880 880 880 879 878 877 877 875 874
844 847 848 850 854 856 858 861 864 866 869 870 872 875 877 879 880 881 882 883 884 884 884 884 884 883 882 881 880 880 880 879 879 880 879 879 879 879 879 878 877 875 874
842 846 848 850 852 855 858 859 862 865 868 870 873 875 877 879 880 881 883 884 884 885 885 885 885 884 883 882 882 882 883 881 879 879 879 879 879 878 878 878 876 876 874
841 844 847 848 851 855 858 860 862 865 867 870 872 874 876 878 880 882 883 884 885 885 886 886 886 885 884 884 883 884 886 887 883 880 880 879 879 879 879 878 877 875 874
837 842 846 848 850 854 857 860 861 863 865 867 870 873 875 877 879 881 883 884 885 886 886 887 887 887 886 885 885 885 885 885 886 885 880 880 880 879 879 878 877 876 875
835 839 843 848 850 853 856 858 860 862 865 866 868 871 874 877 879 880 882 883 885 886 886 887 888 888 887 887 886 885 885 886 887 887 886 883 881 880 879 879 879 878 876
837 841 843 847 850 851 855 857 860 861 864 866 868 870 873 875 877 880 881 883 885 886 887 888 888 888 888 889 888 887 886 886 887 887 887 888 886 883 880 880 880 879 877
Wind_Speed
12 14 13 14 13 13 12 12 15 15 13 13 12 12 12 11 11 14 15 16 17 17 18 19 18 19 18 19 19 19 18 17 17 17 17 17 17 17 17 16 16 15 15
19 16 14 13 13 12 13 12 14 14 13 13 12 13 12 12 12 14 15 16 17 18 18 18 18 18 19 19 17 17 17 17 15 16 16 17 16 17 16 15 16 16 16
20 17 15 14 13 12 12 12 13 13 13 11 11 12 11 13 14 13 15 16 17 17 18 17 17 17 17 17 17 16 14 14 15 15 16 17 17 15 14 16 16 15 14
21 18 16 15 14 13 12 12 10 11 12 10 11 11 11 13 14 14 15 15 17 17 17 17 17 16 16 14 15 14 13 14 13 14 15 15 14 13 14 14 15 14 13
21 18 16 15 13 12 12 11 10 10 10 10 11 11 11 12 14 14 14 16 16 16 15 15 13 13 13 13 14 11 10 10 11 12 14 13 13 11 12 12 12 11 12
22 18 14 12 12 12 11 10 11 10 10 9 10 9 10 11 12 13 14 15 15 14 14 14 12 10 7 8 7 6 6 7 10 10 11 12 12 10 11 11 10 10 9
21 17 15 14 12 13 11 10 10 10 11 10 10 10 9 10 12 11 13 13 12 11 12 11 10 10 10 7 5 7 6 6 8 9 10 11 9 9 11 7 8 9 7
20 17 14 13 12 12 12 10 11 11 11 11 10 10 9 9 11 12 12 12 11 10 11 10 8 7 7 7 8 6 5 6 7 7 7 8 8 8 7 7 7 6 6
17 16 14 13 12 13 12 11 10 10 11 11 10 9 9 9 10 11 11 11 10 11 11 9 7 10 10 7 5 6 5 4 5 6 6 6 5 5 4 4 5 5 4
15 13 14 13 12 12 12 10 11 12 11 12 11 11 8 8 8 10 11 11 9 9 9 8 7 7 7 4 3 4 4 2 3 3 4 5 4 3 3 4 2 4 4
14 13 14 13 14 13 12 10 11 11 11 12 12 12 10 9 9 10 11 10 10 8 8 6 6 5 4 6 3 2 2 2 0 1 2 2 1 2 3 1 1 2 3
16 14 13 13 15 14 12 12 12 11 11 12 13 12 11 10 11 11 10 10 11 10 8 6 4 1 1 3 3 3 5 4 2 2 0 0 0 1 3 3 3 3 3
18 15 15 14 15 15 13 14 12 11 11 11 11 12 12 11 11 11 11 11 11 9 7 4 3 4 6 7 6 5 4 4 3 3 2 1 2 3 4 4 4 4 5
19 16 16 15 15 13 15 13 13 12 12 12 12 11 11 11 12 11 9 9 6 5 5 4 2 3 5 8 7 6 3 3 3 3 2 2 3 3 4 5 5 6 6
20 18 18 16 15 15 15 14 13 11 10 9 9 9 10 11 9 7 5 6 7 6 5 6 8 6 5 2 3 2 1 3 4 5 5 4 3 4 4 4 5 6 7
21 20 19 17 15 16 14 12 11 10 10 9 8 8 10 9 6 5 5 4 4 6 8 9 8 6 5 4 3 2 3 3 5 6 6 6 6 5 5 5 6 7 8
23 23 21 19 17 15 14 12 11 9 9 9 9 9 9 5 4 3 3 3 4 5 6 8 5 5 5 2 0 1 3 5 6 7 8 8 8 7 7 7 8 10 11
24 25 22 19 18 16 14 12 11 9 9 10 8 8 6 4 5 3 1 1 2 2 5 7 6 4 3 2 3 3 4 5 6 8 8 9 9 9 10 10 12 12 14
24 25 25 21 18 15 16 13 12 10 10 7 8 9 6 6 4 3 4 3 3 2 5 7 8 7 5 3 4 5 6 6 7 8 10 11 10 10 10 9 10 12 14
24 25 24 21 20 15 15 14 15 12 12 10 7 10 8 10 6 4 5 4 2 4 4 6 8 7 6 8 6 5 4 6 7 9 11 11 11 11 11 11 12 13 14
24 25 25 21 19 19 19 17 16 15 14 12 9 13 10 9 8 5 8 5 3 4 5 8 10 8 7 9 5 5 5 5 6 7 7 9 11 11 10 13 14 14 15
27 26 25 22 22 21 19 19 17 17 14 13 14 13 12 11 9 8 6 4 4 2 3 6 10 7 7 8 5 3 3 4 5 6 7 7 9 8 10 13 11 14 16
27 29 27 26 22 21 15 15 13 15 12 12 13 13 13 13 12 10 8 5 4 3 2 3 7 9 9 6 7 3 2 1 5 5 6 7 8 10 10 13 11 12 15
31 29 28 26 22 21 15 16 15 16 13 13 14 13 11 11 11 11 9 7 5 5 3 2 5 9 10 10 3 6 4 2 1 4 5 6 9 10 10 13 12 10 12
32 33 29 26 24 21 17 17 15 14 12 10 12 13 12 11 10 10 10 9 5 4 5 4 4 6 10 13 12 6 3 8 9 3 2 8 7 12 8 11 12 11 14
21 27 29 26 26 22 19 17 17 16 12 11 12 14 13 11 10 8 7 10 7 4 6 5 3 4 6 9 10 12 13 5 5 5 4 3 6 9 13 10 13 12 14
Wind_Direction
159 146 142 131 121 118 116 109 105 108 103 99 99 95 97 96 101 98 95 93 93 94 96 94 98 97 98 98 99 98 95 96 98 92 87 82 85 77 77 75 78 78 80
146 147 143 138 130 123 121 121 112 110 109 102 105 107 110 108 103 101 95 97 98 98 96 95 95 95 93 95 97 94 98 94 89 85 84 79 83 77 79 77 83 83 82
146 146 141 141 132 126 122 124 120 115 111 106 106 107 107 106 106 105 99 98 98 96 97 95 96 92 89 93 91 91 90 97 87 83 91 87 81 81 83 76 81 84 82
148 148 145 142 134 131 130 129 127 120 117 112 110 104 105 107 103 104 103 104 103 103 99 100 98 95 97 98 94 94 85 87 102 97 95 94 83 85 80 84 81 83 84
145 145 142 141 142 137 138 130 127 128 120 118 113 109 104 103 97 100 102 106 108 104 101 96 94 97 104 102 99 95 82 96 109 97 93 87 83 83 86 75 79 84 83
143 144 144 139 139 135 138 142 144 132 129 120 114 109 111 111 103 102 97 105 105 103 99 92 89 94 130 123 121 111 72 106 106 104 95 85 84 90 82 74 81 76 83
145 147 141 141 139 138 136 141 142 145 138 137 129 120 115 112 101 103 100 100 109 112 106 96 90 89 98 114 99 136 125 105 108 113 99 100 82 88 93 79 82 85 75
146 145 145 144 140 140 134 142 138 143 143 136 132 125 125 111 96 100 101 104 108 109 105 95 85 97 117 122 105 101 101 104 104 114 118 114 102 90 78 76 78 88 75
147 146 141 140 139 141 136 139 147 144 145 141 135 137 121 115 98 96 105 106 105 118 120 112 91 96 111 107 100 74 86 90 100 114 116 115 107 107 105 74 57 59 59
151 145 143 143 137 137 133 136 132 137 131 139 139 128 112 106 103 108 106 104 108 118 130 127 110 105 94 69 83 53 74 90 110 115 126 110 91 73 93 72 68 35 44
158 157 153 147 143 139 134 134 125 127 130 132 130 131 139 128 118 113 102 101 104 113 135 129 107 107 82 71 61 25 38 22 141 136 147 136 102 329 21 51 349 32 359
170 166 161 155 149 140 143 141 136 137 138 141 145 143 138 128 115 107 97 97 97 103 104 104 97 120 295 331 325 301 305 330 282 251 243 187 45 276 330 345 348 342 342
175 171 170 159 155 153 152 144 137 136 142 147 146 141 136 132 122 112 107 102 108 108 116 127 172 232 259 280 294 319 300 318 308 289 280 305 308 334 329 335 331 330 334
180 176 172 166 161 156 149 145 140 134 136 136 137 141 135 132 121 120 123 113 97 94 96 71 6 266 260 252 261 281 291 330 358 339 319 317 320 313 319 322 326 334 334
182 179 176 171 165 158 151 147 150 149 149 143 140 139 139 133 126 123 100 77 89 72 69 52 41 59 42 46 216 223 294 348 11 14 7 345 333 328 323 328 343 340 344
181 181 175 171 166 161 155 154 155 154 150 148 150 152 145 139 140 136 95 63 60 61 68 35 34 50 52 57 77 227 264 325 353 359 357 356 358 348 345 342 345 348 351
184 180 178 173 170 169 162 163 166 173 166 150 143 148 151 154 161 152 126 63 63 65 40 25 31 47 44 44 6 352 280 314 330 348 348 344 344 346 349 350 356 353 347
186 185 182 184 179 176 171 168 168 173 168 162 166 171 179 193 187 194 190 135 131 63 24 22 27 11 348 327 325 322 317 330 330 332 333 336 334 334 333 340 343 341 339
192 190 188 190 185 178 188 181 181 191 183 176 185 191 184 168 174 197 147 134 107 38 20 18 20 6 13 345 318 304 304 314 324 327 327 333 336 336 345 352 349 348 345
197 197 192 194 197 203 190 186 182 186 183 184 187 187 190 187 194 181 162 142 80 51 33 16 13 18 26 2 339 313 320 314 310 312 313 313 322 336 339 347 348 347 346
195 196 196 192 192 191 188 185 185 183 187 191 180 180 181 186 190 168 181 158 117 65 58 30 17 23 22 6 5 12 337 326 323 329 324 321 314 322 328 330 337 346 352
195 199 195 183 183 186 193 193 195 187 191 199 195 197 196 208 211 194 189 179 155 125 74 41 27 33 19 20 36 34 9 353 359 346 343 8 11 8 357 353 334 338 343
198 198 199 186 187 187 185 184 181 184 184 189 196 203 210 214 217 210 207 207 194 183 138 63 39 39 27 47 58 63 56 308 330 2 12 360 7 14 21 16 4 352 351
204 204 204 196 191 190 191 186 184 180 177 192 202 207 207 209 212 213 211 212 201 197 181 119 67 51 44 39 54 49 51 16 31 344 17 18 22 27 15 26 25 31 29
201 205 200 202 192 191 196 193 195 202 202 189 193 193 201 206 208 201 211 198 191 201 186 153 103 68 55 54 59 49 53 68 46 55 342 351 50 35 46 55 44 47 25
201 207 205 203 200 195 193 200 209 202 209 199 185 194 194 196 201 194 195 192 190 185 187 172 130 99 64 54 51 54 58 81 57 48 45 343 340 23 51 69 61 31 10